Wind_Speed
46 47 43 43 42 48 47 48 48 38 36 33 31 32 28 26 24 29 32 33 34 34 34 33 34 33 33 29 26 21 18 16 17 16 15 14 13 16 15 13 12 10 9 10 8 8 10 11 15
51 52 49 47 45 48 55 56 57 49 40 38 36 34 35 33 30 28 27 30 31 29 27 32 34 33 32 26 25 21 19 18 18 18 16 18 18 17 16 16 18 14 10 10 11 11 11 13 16
60 57 57 50 51 51 56 64 61 59 56 50 44 39 39 38 37 36 38 37 34 32 31 29 33 31 28 26 26 25 24 24 23 24 23 22 22 23 22 21 20 20 20 17 17 18 18 18 17
61 58 67 56 54 56 63 70 68 64 59 59 54 47 45 41 41 40 44 45 42 40 38 34 38 33 31 31 31 28 29 30 31 31 31 30 28 29 29 29 29 29 28 26 24 24 23 24 25
68 61 60 57 59 64 67 70 71 71 66 61 58 54 46 48 43 45 47 49 49 47 45 40 35 39 37 35 36 37 37 38 38 38 37 36 35 34 34 34 35 35 34 33 33 33 32 30 28
75 67 65 60 68 70 70 78 69 71 67 67 62 61 54 53 50 48 51 56 52 51 50 50 48 44 41 41 41 40 39 41 42 41 40 39 39 40 39 40 41 42 42 42 40 39 38 37 34
81 78 74 74 79 78 82 81 79 72 70 69 70 66 60 59 56 52 54 58 55 54 54 54 53 52 50 48 47 47 46 47 47 46 45 43 43 43 44 45 44 45 44 44 45 45 45 47 46
92 86 82 86 86 88 91 83 82 82 76 74 71 67 66 67 62 59 57 63 59 59 56 53 54 57 54 51 53 53 52 51 52 50 49 49 47 47 48 48 48 49 49 49 48 48 49 49 49
99 97 94 94 92 95 93 89 90 88 84 82 80 78 75 73 69 63 61 65 67 63 60 58 57 57 58 57 56 55 56 57 54 54 53 54 53 52 53 52 52 53 54 54 53 53 53 53 52
99 99 102 102 103 107 101 96 96 94 94 90 89 84 81 80 74 72 70 66 70 68 65 61 59 58 59 59 55 57 58 58 60 58 57 56 56 57 57 57 53 57 59 60 58 55 56 55 55
104 101 106 108 109 110 108 106 104 100 98 99 96 96 88 85 78 74 71 72 71 74 70 66 64 62 62 62 58 59 61 64 64 63 59 58 58 59 58 55 58 61 58 59 62 61 62 62 60
106 108 112 114 113 115 116 113 106 105 107 105 106 102 100 98 96 91 79 78 79 78 75 73 68 65 65 64 61 58 61 63 65 56 56 60 64 62 62 65 61 56 62 60 50 51 53 58 62
85 93 98 104 116 114 117 119 119 113 113 112 113 110 111 110 105 102 98 91 87 85 81 80 76 71 70 69 66 62 56 52 51 60 55 52 54 61 62 59 61 60 47 46 56 56 58 60 60
65 78 80 85 95 96 100 108 113 114 119 116 112 113 116 117 112 111 108 104 99 94 90 87 82 81 76 76 73 68 66 65 69 68 62 57 54 54 62 67 63 61 64 61 67 68 67 74 66
64 58 61 67 72 78 86 86 89 96 113 116 119 112 112 114 117 115 112 109 106 102 95 92 88 86 85 83 82 82 79 80 78 71 65 63 72 65 78 72 65 60 68 67 74 71 69 61 67
61 66 58 53 58 66 73 64 69 83 94 99 103 97 102 107 114 114 111 111 110 107 103 96 93 91 89 89 87 89 85 84 84 78 75 74 79 69 66 72 70 71 75 77 75 80 76 72 70
51 51 62 64 69 69 63 54 64 66 70 78 83 89 92 97 104 105 109 110 109 106 104 106 102 97 93 92 92 95 90 88 86 81 83 81 78 74 68 68 71 68 72 79 84 78 82 72 68
65 69 62 67 72 71 68 60 59 57 53 58 69 75 85 89 91 97 99 101 103 103 104 103 104 100 97 95 96 95 92 89 88 88 84 88 86 87 87 92 87 89 91 93 85 80 75 75 78
68 66 68 66 66 68 68 62 63 64 60 56 50 58 71 78 85 86 90 96 97 97 97 100 101 99 95 99 99 98 95 92 92 91 94 94 94 95 93 95 93 95 92 94 93 91 89 91 89
69 64 57 65 75 73 64 61 66 65 62 55 47 48 56 67 76 76 79 85 90 93 93 94 100 99 100 99 99 98 94 93 94 93 94 95 98 98 100 99 99 101 100 97 96 95 96 97 91
71 67 63 62 80 67 61 56 60 62 61 56 49 44 47 53 61 68 70 74 82 86 88 89 91 96 103 101 97 96 96 98 98 97 95 98 101 103 104 102 103 102 100 99 95 95 91 91 93
73 71 71 73 78 67 69 56 58 60 60 56 49 43 46 47 52 59 65 68 73 77 81 86 89 87 88 92 95 95 96 98 100 97 99 100 97 100 100 99 101 101 102 101 101 91 93 94 96
81 83 81 81 78 76 71 60 58 57 56 52 46 47 48 45 49 53 56 63 67 72 75 80 85 86 82 79 81 91 99 93 98 98 96 95 99 99 98 99 96 95 94 89 89 89 90 90 89
89 90 87 84 77 69 64 57 55 57 57 49 47 47 45 46 45 49 48 54 60 64 71 73 75 79 80 72 69 74 76 74 86 91 89 88 90 92 96 94 91 88 90 92 89 88 85 80 79
89 90 85 81 73 59 65 57 49 55 55 49 48 45 42 46 42 43 42 41 50 54 59 59 62 59 59 67 60 58 66 69 69 75 79 82 81 81 81 81 82 84 85 84 85 82 79 76 74
93 94 89 82 75 64 67 58 49 54 55 53 47 38 44 42 38 40 39 44 52 58 54 61 55 54 51 60 57 57 60 63 66 66 68 72 72 72 75 77 77 78 77 76 76 74 73 73 72
95 95 83 84 79 71 66 62 56 54 55 49 40 37 41 40 38 39 41 53 52 58 57 59 59 57 58 62 61 65 61 64 65 66 69 68 70 72 73 73 73 73 72 71 70 70 71 72 74
97 88 90 84 75 68 62 59 55 57 53 45 44 42 42 40 41 41 40 47 54 59 62 60 64 64 65 66 66 68 68 69 68 68 67 66 67 68 69 70 71 71 70 68 68 70 73 75 77
90 85 83 77 70 64 57 57 54 57 50 48 46 43 41 42 41 40 44 49 56 60 64 68 69 71 70 70 68 68 68 67 68 68 69 68 68 68 69 70 70 71 70 70 70 72 73 75 77
77 74 71 63 59 58 58 57 53 55 49 50 49 45 44 43 43 44 45 44 47 55 60 63 69 71 71 71 69 69 69 70 71 71 71 72 72 72 73 74 75 74 74 73 73 74 73 73 74
Wind_Direction
247 247 254 250 247 251 256 258 261 257 250 262 257 242 239 237 239 249 246 252 251 247 251 257 260 266 267 267 266 268 268 266 270 275 276 278 291 292 279 275 283 305 325 321 319 320 320 325 326
250 250 253 248 244 250 255 259 262 259 257 260 266 254 245 246 235 242 243 254 261 260 259 260 260 266 264 259 261 262 265 265 265 270 273 276 283 289 290 279 278 277 279 290 298 301 304 312 318
250 251 252 252 245 243 248 254 258 266 264 261 260 257 252 256 253 252 257 248 253 257 254 255 259 258 256 255 257 261 264 264 268 270 270 273 280 284 284 285 288 285 286 285 286 289 292 295 301
246 254 253 247 245 244 248 252 257 262 261 264 261 257 256 256 257 256 258 259 257 254 254 258 260 256 255 260 261 262 259 263 266 268 269 271 274 276 279 283 285 287 285 283 285 286 288 294 299
249 246 249 248 248 242 245 254 257 259 260 260 262 260 257 260 260 261 259 260 259 257 256 255 259 251 253 261 264 265 267 269 272 274 276 277 280 279 280 282 286 288 288 290 289 291 293 293 295
246 246 250 249 245 249 251 256 257 258 257 260 261 261 259 258 260 264 262 260 259 257 259 260 257 260 263 261 261 263 265 269 270 271 273 276 279 281 281 283 285 287 288 288 288 288 288 290 291
244 242 243 244 251 249 253 253 253 251 258 256 256 258 260 259 260 261 259 259 257 258 260 260 262 265 267 266 264 264 264 266 268 271 274 273 274 275 278 280 282 281 280 281 282 284 285 287 289
246 245 244 250 255 257 253 251 254 256 254 256 258 258 259 257 257 261 262 262 262 259 257 259 262 264 264 264 265 269 269 270 269 268 270 271 270 273 275 277 280 279 277 274 275 278 280 282 284
251 249 249 251 251 250 253 255 257 258 258 259 262 260 259 261 261 257 259 259 263 262 257 258 259 261 263 265 266 266 267 268 270 271 270 271 271 272 275 280 282 283 281 276 274 276 276 277 279
251 248 248 249 249 254 254 255 258 259 260 260 259 258 260 262 260 257 258 254 257 259 257 255 258 261 263 267 270 271 272 273 272 274 274 273 275 278 282 282 290 289 285 282 280 277 279 280 279
251 250 251 252 251 252 252 254 257 258 258 258 260 259 256 258 255 252 253 253 252 255 255 253 256 258 258 262 268 273 273 271 272 275 279 281 280 279 280 279 288 283 278 276 277 277 279 280 283
252 252 253 251 253 254 252 252 256 257 259 259 259 257 257 256 256 256 249 245 245 251 255 256 255 256 255 256 263 269 275 275 272 276 278 280 276 279 277 278 279 277 277 272 279 277 288 286 277
254 251 250 250 250 254 253 255 256 255 255 257 257 258 258 258 255 255 254 247 245 247 249 255 256 255 257 256 256 261 264 257 262 271 272 276 281 278 277 278 281 276 267 267 287 287 286 294 282
250 250 251 252 251 251 253 254 255 253 255 257 257 257 255 255 255 256 255 253 256 252 250 250 252 256 257 257 254 254 250 254 263 269 269 264 275 269 279 278 277 277 262 271 285 287 291 292 281
251 245 246 249 251 251 251 252 253 251 253 255 256 256 257 254 253 253 253 255 253 252 249 247 250 250 255 255 256 257 256 258 259 261 264 268 268 268 271 272 274 274 268 270 280 285 293 290 287
254 250 247 248 249 250 251 249 255 254 254 255 253 252 253 254 254 253 254 252 253 252 249 247 245 247 250 252 253 254 255 256 260 262 263 264 267 266 266 270 269 269 267 269 277 282 282 286 287
260 259 248 247 248 246 249 244 253 256 256 253 251 251 251 252 256 256 255 251 250 251 250 249 246 247 250 249 247 248 252 256 260 261 261 262 260 259 264 268 269 267 265 272 278 281 283 284 277
256 254 248 241 247 247 248 248 253 259 255 254 252 250 253 252 252 251 251 251 250 248 249 248 247 246 248 247 245 248 250 252 257 260 259 259 258 261 262 267 268 265 268 273 274 277 277 279 279
255 255 254 250 254 252 252 251 251 256 253 258 258 253 250 249 250 249 248 250 252 250 248 248 247 247 245 245 247 250 251 253 254 254 258 257 258 262 263 265 267 268 272 273 276 278 280 282 281
257 259 257 254 256 254 254 254 252 255 253 255 260 261 258 252 250 251 248 246 246 249 249 249 247 246 245 245 246 250 250 250 252 252 256 258 260 261 263 265 268 269 273 274 277 278 279 282 283
256 258 258 254 255 253 252 255 254 253 256 254 255 263 262 260 253 250 247 247 247 246 247 248 247 247 247 245 245 249 250 252 254 255 255 257 260 263 265 267 269 272 274 277 279 278 279 278 278
257 256 255 255 255 254 253 253 254 253 253 253 251 264 267 266 257 248 246 245 244 244 245 244 246 247 249 249 247 248 250 251 253 257 257 257 260 260 265 268 269 272 274 275 276 275 278 279 282
250 249 250 251 253 254 254 253 257 252 247 249 251 256 262 268 263 250 247 245 245 243 243 244 247 248 251 252 253 251 252 252 253 256 256 256 259 261 264 265 267 270 271 272 273 276 278 281 282
246 248 249 249 251 255 259 252 249 253 250 249 249 254 260 266 264 255 250 247 250 248 246 245 247 250 249 250 255 251 249 250 250 252 254 253 255 258 261 264 264 265 266 270 275 278 281 281 281
248 251 252 251 254 258 255 250 247 250 249 242 245 252 261 265 267 257 246 242 238 239 244 245 246 247 249 246 247 248 244 247 249 250 251 253 256 257 260 263 267 269 273 275 277 279 278 279 278
244 247 248 251 252 252 247 245 243 244 243 242 246 258 264 266 265 255 239 217 238 229 238 242 242 239 239 245 243 245 244 243 247 252 254 257 259 261 265 268 269 271 273 275 275 275 275 276 276
238 242 246 246 246 246 240 238 236 238 243 245 246 251 254 257 258 249 238 225 231 235 229 236 236 239 236 237 239 244 245 246 254 254 257 260 262 264 265 267 267 268 268 270 271 272 274 275 277
237 239 241 244 245 244 237 234 231 235 238 238 246 247 255 253 253 246 237 229 225 234 233 236 238 240 239 242 244 247 250 254 257 259 261 262 262 262 263 264 264 265 267 267 269 272 273 274 277
237 238 240 241 240 234 229 228 230 235 237 238 244 250 252 248 249 242 236 229 231 232 233 238 239 240 242 245 249 252 256 257 259 260 260 260 260 261 262 264 264 265 265 267 271 273 275 277 280
232 233 234 235 234 232 228 223 229 235 238 238 242 249 249 245 245 238 238 239 235 235 234 238 241 242 244 245 248 251 255 257 260 262 263 264 264 264 265 266 266 267 268 270 272 276 278 280 281
Height
10943 10947 10948 10949 10952 10951 10946 10947 10952 10958 10965 10967 10971 10975 10975 10978 10980 10980 10980 10979 10979 10981 10982 10982 10982 10982 10982 10982 10982 10983 10982 10982 10983 10982 10981 10980 10978 10977 10976 10975 10975 10973 10973 10972 10970 10968 10967 10967 10966
10934 10938 10942 10946 10948 10946 10936 10938 10941 10950 10958 10962 10965 10969 10972 10973 10976 10975 10976 10974 10973 10976 10978 10979 10978 10977 10977 10978 10978 10979 10979 10980 10980 10980 10980 10979 10977 10976 10975 10974 10973 10971 10969 10969 10968 10966 10965 10964 10963
10924 10927 10933 10940 10944 10939 10923 10924 10933 10942 10949 10953 10958 10962 10964 10966 10970 10971 10970 10970 10969 10969 10970 10972 10973 10973 10973 10973 10974 10974 10976 10977 10977 10977 10977 10976 10974 10973 10972 10971 10971 10969 10968 10967 10965 10964 10963 10962 10961
10913 10917 10923 10931 10935 10931 10916 10905 10922 10933 10939 10942 10949 10955 10956 10957 10961 10962 10962 10961 10964 10963 10964 10966 10967 10968 10969 10969 10970 10970 10971 10971 10972 10972 10972 10971 10970 10969 10969 10968 10967 10965 10963 10962 10962 10960 10959 10958 10958
10901 10906 10912 10921 10926 10917 10905 10897 10907 10917 10928 10932 10936 10946 10950 10950 10951 10954 10955 10952 10955 10957 10958 10958 10961 10962 10963 10964 10966 10966 10966 10967 10967 10967 10966 10966 10966 10965 10964 10964 10964 10962 10961 10959 10958 10957 10957 10956 10954
10891 10895 10904 10909 10908 10903 10899 10885 10903 10905 10915 10921 10929 10933 10941 10942 10943 10945 10943 10944 10948 10950 10952 10954 10955 10957 10958 10959 10960 10960 10961 10960 10959 10959 10959 10959 10959 10959 10960 10960 10959 10957 10955 10954 10953 10952 10951 10951 10949
10877 10882 10893 10896 10892 10893 10877 10876 10887 10896 10902 10911 10915 10923 10931 10933 10936 10936 10932 10930 10938 10941 10944 10946 10948 10949 10949 10951 10952 10953 10953 10952 10952 10952 10952 10952 10951 10951 10952 10952 10952 10951 10950 10948 10947 10946 10944 10943 10942
10861 10870 10881 10879 10872 10868 10859 10867 10868 10885 10892 10894 10900 10912 10917 10918 10924 10927 10927 10920 10927 10933 10936 10938 10940 10940 10940 10941 10944 10944 10944 10944 10944 10943 10943 10943 10943 10944 10944 10944 10943 10942 10941 10940 10939 10938 10937 10936 10935
10843 10859 10863 10855 10849 10836 10849 10858 10857 10871 10878 10883 10886 10896 10902 10906 10913 10916 10918 10911 10913 10919 10924 10929 10930 10930 10931 10934 10934 10934 10934 10933 10933 10933 10933 10933 10933 10933 10934 10933 10932 10932 10931 10930 10929 10929 10929 10928 10927
10827 10836 10837 10832 10832 10821 10840 10846 10847 10856 10864 10869 10871 10878 10888 10894 10899 10904 10907 10905 10899 10904 10909 10914 10918 10920 10924 10924 10924 10926 10926 10926 10924 10923 10923 10924 10925 10925 10925 10925 10924 10923 10921 10919 10918 10918 10918 10918 10918
10804 10818 10815 10813 10810 10808 10817 10827 10833 10840 10848 10848 10856 10859 10874 10876 10881 10888 10895 10894 10890 10887 10895 10901 10905 10910 10912 10912 10914 10914 10914 10913 10913 10913 10914 10914 10915 10916 10916 10915 10914 10912 10909 10907 10907 10907 10907 10908 10908
10785 10792 10791 10789 10788 10793 10794 10806 10822 10828 10822 10827 10835 10844 10850 10859 10863 10871 10880 10875 10874 10876 10882 10886 10892 10897 10898 10901 10904 10903 10903 10901 10902 10902 10901 10901 10902 10905 10905 10905 10902 10901 10894 10895 10898 10898 10898 10897 10897
10767 10766 10761 10761 10768 10775 10775 10788 10796 10807 10801 10800 10810 10820 10827 10834 10844 10851 10856 10856 10859 10865 10869 10871 10876 10883 10886 10889 10892 10894 10891 10888 10889 10890 10892 10891 10890 10892 10891 10889 10890 10891 10888 10888 10887 10887 10886 10885 10885
10744 10743 10743 10747 10748 10753 10756 10762 10771 10774 10778 10783 10781 10789 10801 10809 10818 10828 10833 10838 10847 10850 10856 10856 10862 10867 10872 10871 10878 10880 10880 10876 10877 10879 10882 10880 10882 10881 10879 10879 10880 10879 10877 10875 10874 10872 10871 10872 10872
10729 10730 10728 10732 10733 10735 10733 10744 10746 10742 10752 10767 10768 10764 10771 10781 10794 10801 10810 10819 10828 10834 10843 10844 10846 10849 10854 10860 10862 10864 10865 10863 10866 10869 10869 10868 10869 10870 10868 10869 10869 10866 10866 10862 10861 10860 10857 10859 10859
10711 10716 10720 10720 10717 10716 10713 10734 10720 10728 10736 10747 10750 10748 10744 10746 10764 10779 10793 10799 10801 10810 10819 10830 10831 10830 10838 10844 10847 10844 10848 10850 10852 10855 10854 10856 10855 10857 10855 10856 10854 10854 10853 10850 10850 10851 10851 10849 10848
10698 10703 10705 10702 10697 10693 10700 10716 10705 10712 10722 10727 10727 10730 10730 10729 10735 10760 10771 10775 10777 10788 10798 10806 10810 10815 10820 10828 10831 10825 10832 10836 10837 10844 10842 10842 10841 10843 10842 10843 10839 10837 10836 10837 10839 10839 10838 10837 10837
10677 10676 10677 10681 10676 10682 10689 10704 10698 10695 10705 10709 10710 10712 10714 10719 10721 10730 10743 10747 10754 10769 10778 10784 10790 10797 10803 10805 10806 10811 10818 10823 10827 10828 10827 10827 10831 10827 10828 10828 10823 10822 10821 10823 10825 10825 10824 10823 10824
10652 10658 10662 10667 10662 10667 10676 10684 10685 10681 10689 10693 10697 10697 10698 10701 10701 10713 10720 10727 10735 10742 10752 10760 10768 10777 10785 10780 10790 10796 10807 10811 10809 10811 10806 10811 10810 10810 10809 10809 10808 10808 10810 10806 10808 10807 10807 10807 10808
10636 10641 10649 10648 10647 10648 10659 10668 10670 10669 10676 10682 10685 10684 10683 10684 10690 10697 10703 10707 10713 10721 10730 10739 10747 10756 10756 10767 10775 10780 10789 10791 10787 10792 10791 10793 10790 10789 10789 10790 10791 10792 10792 10794 10794 10794 10791 10790 10790
10621 10626 10629 10631 10619 10632 10640 10653 10656 10658 10660 10667 10671 10673 10672 10672 10676 10680 10687 10688 10695 10704 10712 10718 10724 10727 10736 10748 10758 10765 10769 10772 10773 10774 10774 10773 10770 10770 10770 10774 10774 10775 10776 10778 10779 10776 10776 10774 10773
10602 10605 10607 10607 10602 10617 10620 10638 10641 10645 10648 10651 10659 10663 10660 10662 10662 10664 10669 10673 10678 10686 10693 10698 10700 10709 10718 10729 10739 10744 10750 10753 10755 10757 10759 10756 10753 10754 10754 10757 10759 10760 10760 10761 10762 10761 10760 10756 10753
10583 10579 10582 10581 10588 10593 10611 10622 10626 10630 10635 10639 10648 10650 10649 10651 10648 10650 10655 10659 10667 10671 10677 10682 10688 10696 10706 10714 10720 10725 10730 10735 10735 10738 10740 10739 10738 10737 10740 10744 10745 10744 10743 10743 10744 10744 10743 10740 10733
10548 10553 10557 10563 10572 10588 10601 10609 10618 10617 10621 10630 10634 10638 10640 10640 10638 10639 10644 10651 10657 10662 10666 10672 10678 10685 10691 10701 10703 10705 10711 10713 10716 10718 10719 10719 10721 10722 10727 10727 10728 10728 10729 10730 10727 10726 10723 10722 10717
10528 10532 10540 10550 10562 10591 10584 10592 10607 10602 10607 10616 10620 10626 10629 10628 10628 10629 10633 10642 10648 10653 10654 10661 10668 10673 10678 10684 10689 10689 10692 10695 10699 10701 10703 10705 10707 10709 10710 10710 10710 10711 10711 10710 10710 10709 10708 10706 10703
10504 10507 10523 10539 10552 10567 10566 10579 10590 10587 10592 10600 10611 10619 10618 10618 10618 10618 10624 10630 10633 10641 10648 10651 10658 10662 10666 10670 10673 10676 10676 10677 10682 10687 10691 10693 10694 10696 10697 10695 10695 10694 10694 10694 10694 10694 10692 10692 10689
10483 10483 10516 10516 10529 10544 10555 10561 10569 10575 10578 10591 10601 10607 10605 10605 10605 10609 10613 10618 10623 10628 10633 10636 10642 10645 10649 10651 10654 10659 10662 10665 10670 10675 10678 10679 10681 10681 10681 10680 10680 10679 10679 10680 10681 10680 10678 10675 10671
10452 10479 10478 10499 10519 10533 10543 10550 10558 10561 10570 10581 10586 10591 10592 10594 10594 10598 10603 10607 10611 10615 10620 10625 10629 10632 10635 10639 10642 10646 10650 10654 10657 10660 10662 10664 10666 10666 10665 10665 10665 10665 10666 10667 10668 10666 10661 10658 10654
10443 10459 10475 10492 10505 10518 10529 10537 10545 10550 10563 10569 10574 10578 10581 10583 10585 10590 10591 10592 10596 10601 10606 10609 10611 10616 10622 10626 10630 10634 10637 10639 10640 10641 10644 10646 10647 10647 10649 10649 10649 10650 10651 10652 10651 10647 10643 10640 10636
10428 10450 10465 10483 10498 10507 10515 10524 10532 10541 10552 10558 10563 10566 10569 10570 10572 10576 10580 10583 10585 10586 10592 10595 10598 10605 10610 10614 10616 10618 10620 10621 10623 10624 10626 10627 10627 10630 10631 10630 10630 10631 10632 10633 10633 10630 10626 10623 10620